Terminal Aerodrome Forecast
Issued by NWS

Home | Current Version | Previous Version | Graphics & Text | Print | Product List | Glossary On
Versions: 1 2 3 4 5 6 7 8 9 10 11 12 13 14 15 16 17 18 19 20 21 22 23 24 25 26 27
949
FTUS43 KICT 262001 AAB
TAFHUT
TAF AMD
KHUT 262001Z 2620/2718 07012KT P6SM SCT015 BKN050
     FM262100 11012KT P6SM VCTS SCT035 BKN050CB
     FM270000 06015KT P6SM VCTS SCT015 BKN030CB
     FM270600 02015KT P6SM VCSH SCT009 BKN015
     FM271400 01014KT P6SM SCT015 BKN080
     FM271700 01015KT P6SM SCT025=

USA.gov is the U.S. government's official web portal to all federal, state and local government web resources and services.